Hourly Weather Senino

Today, 27 January, Wednesday

Time Temperature Precipitation Wind Pressure Humidity
00:00 -5°C° 0.3 mm 6 mps 724 mmHg 93%
01:00 -5°C° 0.3 mm 6 mps 723 mmHg 93%
02:00 -5°C° 0 mm 5 mps 723 mmHg 95%
03:00 -5°C° 0.4 mm 6 mps 723 mmHg 94%
04:00 -5°C° 0.4 mm 6 mps 722 mmHg 94%
05:00 -5°C° 0.4 mm 6 mps 722 mmHg 94%
06:00 -5°C° 0.5 mm 5 mps 722 mmHg 94%
07:00 -5°C° 0.5 mm 5 mps 722 mmHg 94%
08:00 -5°C° 0 mm 5 mps 722 mmHg 93%
09:00 -4°C° 0.1 mm 5 mps 723 mmHg 92%
10:00 -4°C° 0.1 mm 5 mps 724 mmHg 90%
11:00 -4°C° 0.1 mm 5 mps 725 mmHg 88%
12:00 -3°C° 0 mm 4 mps 725 mmHg 88%
13:00 -3°C° 0 mm 4 mps 726 mmHg 88%
14:00 -2°C° 0 mm 3 mps 727 mmHg 88%
15:00 -2°C° 0.1 mm 3 mps 727 mmHg 90%
16:00 -2°C° 0.1 mm 3 mps 728 mmHg 92%
17:00 -2°C° 0.1 mm 2 mps 728 mmHg 94%
18:00 -2°C° 0.1 mm 2 mps 728 mmHg 94%
19:00 -2°C° 0.1 mm 2 mps 729 mmHg 94%
20:00 -2°C° 0.1 mm 3 mps 729 mmHg 94%
21:00 -3°C° 0 mm 2 mps 729 mmHg 95%
22:00 -3°C° 0 mm 2 mps 730 mmHg 95%
23:00 -3°C° 0 mm 2 mps 730 mmHg 95%

Tomorrow, 28 January, Thursday

Time Temperature Precipitation Wind Pressure Humidity
00:00 -3°C° 0 mm 2 mps 730 mmHg 96%
01:00 -4°C° 0 mm 2 mps 730 mmHg 97%
02:00 -5°C° 0 mm 2 mps 730 mmHg 97%
03:00 -3°C° 0 mm 1 mps 730 mmHg 97%
04:00 -4°C° 0 mm 1 mps 730 mmHg 97%
05:00 -4°C° 0 mm 1 mps 730 mmHg 97%
06:00 -4°C° 0 mm 1 mps 730 mmHg 97%
07:00 -4°C° 0 mm 1 mps 730 mmHg 97%
08:00 -4°C° 0 mm 1 mps 730 mmHg 96%
09:00 -4°C° 0 mm 1 mps 730 mmHg 95%
10:00 -3°C° 0 mm 1 mps 730 mmHg 94%
11:00 -2°C° 0 mm 1 mps 730 mmHg 93%
12:00 -2°C° 0 mm 1 mps 730 mmHg 93%
13:00 -1°C° 0 mm 1 mps 729 mmHg 93%
14:00 -1°C° 0 mm 1 mps 729 mmHg 93%
15:00 -3°C° 0.3 mm 2 mps 729 mmHg 94%
16:00 -4°C° 0.3 mm 2 mps 728 mmHg 95%
17:00 -4°C° 0.3 mm 2 mps 728 mmHg 96%
18:00 -4°C° 0.5 mm 2 mps 727 mmHg 96%
19:00 -4°C° 0.5 mm 2 mps 727 mmHg 96%
20:00 -4°C° 0.5 mm 2 mps 727 mmHg 96%
21:00 -3°C° 0.3 mm 2 mps 726 mmHg 97%
22:00 -3°C° 0.3 mm 2 mps 726 mmHg 97%
23:00 -2°C° 0.3 mm 2 mps 726 mmHg 97%

Day after tomorrow, 29 January, Friday

Time Temperature Precipitation Wind Pressure Humidity
00:00 -1°C° 0.2 mm 2 mps 725 mmHg 98%
01:00 -1°C° 0.2 mm 2 mps 725 mmHg 98%
02:00 +1°C° 0.2 mm 2 mps 725 mmHg 98%
03:00 0°C° 0.2 mm 3 mps 724 mmHg 98%
04:00 0°C° 0.2 mm 3 mps 723 mmHg 98%
05:00 +1°C° 0.2 mm 3 mps 723 mmHg 98%
06:00 +1°C° 0.2 mm 3 mps 723 mmHg 98%
07:00 0°C° 0.2 mm 4 mps 722 mmHg 98%
08:00 0°C° 0.2 mm 4 mps 722 mmHg 98%
09:00 -1°C° 0 mm 4 mps 722 mmHg 95%
10:00 -1°C° 0 mm 4 mps 721 mmHg 91%
11:00 -2°C° 0 mm 4 mps 721 mmHg 88%
12:00 -2°C° 0 mm 4 mps 721 mmHg 86%
13:00 -2°C° 0 mm 4 mps 721 mmHg 85%
14:00 -3°C° 0 mm 4 mps 720 mmHg 83%
15:00 -3°C° 0.1 mm 4 mps 720 mmHg 86%
16:00 -4°C° 0.1 mm 4 mps 720 mmHg 89%
17:00 -4°C° 0.1 mm 4 mps 720 mmHg 92%
18:00 -5°C° 0.1 mm 3 mps 719 mmHg 92%
19:00 -5°C° 0.1 mm 3 mps 719 mmHg 93%
20:00 -6°C° 0.1 mm 3 mps 719 mmHg 93%
21:00 -6°C° 0.1 mm 3 mps 719 mmHg 94%
22:00 -5°C° 0.1 mm 3 mps 718 mmHg 94%
23:00 -5°C° 0.1 mm 3 mps 718 mmHg 94%

30 January, Saturday

Time Temperature Precipitation Wind Pressure Humidity
00:00 -5°C° 0 mm 2 mps 718 mmHg 95%
01:00 -5°C° 0 mm 2 mps 718 mmHg 95%
02:00 -5°C° 0 mm 2 mps 718 mmHg 96%
03:00 -5°C° 0 mm 2 mps 717 mmHg 95%
04:00 -5°C° 0 mm 2 mps 717 mmHg 95%
05:00 -6°C° 0 mm 2 mps 717 mmHg 95%
06:00 -6°C° 0 mm 2 mps 717 mmHg 95%
07:00 -8°C° 0 mm 3 mps 718 mmHg 94%
08:00 -8°C° 0 mm 3 mps 718 mmHg 94%
09:00 -8°C° 0 mm 3 mps 718 mmHg 92%
10:00 -7°C° 0 mm 3 mps 718 mmHg 91%
11:00 -7°C° 0 mm 3 mps 719 mmHg 90%
12:00 -7°C° 0 mm 3 mps 719 mmHg 90%
13:00 -7°C° 0 mm 3 mps 719 mmHg 89%
14:00 -7°C° 0 mm 3 mps 719 mmHg 89%
15:00 -7°C° 0 mm 3 mps 719 mmHg 89%
16:00 -9°C° 0 mm 4 mps 720 mmHg 90%
17:00 -9°C° 0 mm 4 mps 720 mmHg 90%
18:00 -8°C° 0 mm 3 mps 720 mmHg 90%
19:00 -8°C° 0 mm 3 mps 720 mmHg 90%
20:00 -8°C° 0 mm 3 mps 720 mmHg 90%
21:00 -7°C° 0 mm 2 mps 720 mmHg 91%
22:00 -7°C° 0 mm 2 mps 719 mmHg 91%
23:00 -6°C° 0 mm 1 mps 719 mmHg 92%

31 January, Sunday

Time Temperature Precipitation Wind Pressure Humidity
00:00 -6°C° 0.1 mm 1 mps 719 mmHg 93%
01:00 -6°C° 0.1 mm 1 mps 718 mmHg 94%
02:00 -6°C° 0.1 mm 1 mps 718 mmHg 95%
03:00 -6°C° 0.2 mm 1 mps 717 mmHg 95%
04:00 -6°C° 0.2 mm 0 mps 717 mmHg 96%
05:00 -6°C° 0.2 mm 0 mps 716 mmHg 96%
06:00 -6°C° 0.2 mm 0 mps 716 mmHg 96%
07:00 -6°C° 0.2 mm 1 mps 716 mmHg 96%
08:00 -6°C° 0.2 mm 1 mps 716 mmHg 96%
09:00 -6°C° 0.1 mm 1 mps 716 mmHg 94%
10:00 -7°C° 0.1 mm 2 mps 716 mmHg 92%
11:00 -7°C° 0.1 mm 2 mps 717 mmHg 91%
12:00 -6°C° 0.1 mm 2 mps 717 mmHg 90%
13:00 -7°C° 0.1 mm 3 mps 717 mmHg 90%
14:00 -7°C° 0.1 mm 3 mps 718 mmHg 90%
15:00 -7°C° 0.1 mm 3 mps 718 mmHg 91%
16:00 -7°C° 0.1 mm 2 mps 719 mmHg 93%
17:00 -7°C° 0.1 mm 2 mps 719 mmHg 95%
18:00 -7°C° 0.1 mm 2 mps 720 mmHg 94%
19:00 -8°C° 0.1 mm 3 mps 720 mmHg 94%
20:00 -8°C° 0.1 mm 3 mps 721 mmHg 93%
21:00 -8°C° 0 mm 3 mps 721 mmHg 93%
22:00 -8°C° 0 mm 3 mps 722 mmHg 93%
23:00 -8°C° 0 mm 3 mps 723 mmHg 92%

1 February, Monday

Time Temperature Precipitation Wind Pressure Humidity
00:00 -8°C° 0 mm 3 mps 723 mmHg 93%
01:00 -8°C° 0 mm 3 mps 724 mmHg 93%
02:00 -8°C° 0 mm 3 mps 725 mmHg 93%
03:00 -8°C° 0 mm 3 mps 725 mmHg 93%
04:00 -9°C° 0 mm 3 mps 725 mmHg 93%
05:00 -9°C° 0 mm 3 mps 726 mmHg 93%
06:00 -9°C° 0 mm 3 mps 726 mmHg 93%
07:00 -9°C° 0 mm 3 mps 727 mmHg 94%
08:00 -9°C° 0 mm 3 mps 728 mmHg 94%
09:00 -8°C° 0.1 mm 3 mps 728 mmHg 92%
10:00 -9°C° 0.1 mm 4 mps 728 mmHg 90%
11:00 -8°C° 0.1 mm 4 mps 729 mmHg 87%
12:00 -8°C° 0 mm 4 mps 729 mmHg 87%
13:00 -8°C° 0 mm 4 mps 729 mmHg 86%
14:00 -7°C° 0 mm 3 mps 730 mmHg 85%
15:00 -7°C° 0 mm 3 mps 730 mmHg 88%
16:00 -7°C° 0 mm 3 mps 730 mmHg 91%
17:00 -7°C° 0 mm 2 mps 730 mmHg 93%
18:00 -7°C° 0 mm 2 mps 730 mmHg 94%
19:00 -7°C° 0 mm 2 mps 731 mmHg 94%
20:00 -7°C° 0 mm 2 mps 731 mmHg 95%
21:00 -8°C° 0 mm 2 mps 731 mmHg 95%
22:00 -8°C° 0 mm 2 mps 731 mmHg 96%
23:00 -9°C° 0 mm 2 mps 731 mmHg 96%
Show more

We Need Your Consent

Meteoprog and our Service Providers may store and access personal data such as cookies, device identifiers or other similar technologies on your device and process such data to personalise content and ads, as well as provide social media features and to analyse the traffic.

  • Store and/or access information on your device

    Cookies, device identifiers or other information can be stored or accessed on your device for the purposes indicated above.

  • Personalised ads and content, ad and content measurement, audience insights, and products development

    Ads and content can be personalised based on a profile. More data can be added to better personalise ads and content. Ad and content performance can be measured. Insights about the audience who saw the ads and content can be derived. Such data can be used to develop or improve user’s experience, systems and software.

By clicking ‘I Agree’ you will allow the use of indicated cookies, device identifiers, web beacons or other similar technologies. Your settings can be changed in the browser on your device.

For certain purposes, legitimate interests may be relied on, rather than consent. You can read more about this in our Privacy and Cookie Policy.